This is the latest recevied weather packets stored in our database for station/object YD1OCG-15. If no packets are shown the sender has not sent any weather packets the latest 10 day(s).
| Time | Temp. | Humidity | Pressure | Rain* | Wind** | Luminosity | Snow |
|---|---|---|---|---|---|---|---|
| 1777875474 | 28.89° C | 75% | 1010 hPa | - | - | - | - |
| 1777873674 | 28.89° C | 75% | 1010 hPa | - | - | - | - |
| 1777871876 | 29.44° C | 84% | 1011 hPa | - | - | - | - |
| 1777870074 | 29.44° C | 74% | 1011 hPa | - | - | - | - |
| 1777868273 | 29.44° C | 87% | 1012 hPa | - | - | - | - |
| 1777866474 | 29.44° C | 78% | 1012 hPa | - | - | - | - |
| 1777864675 | 29.44° C | 88% | 1013 hPa | - | - | - | - |
| 1777862874 | 29.44° C | 79% | 1013 hPa | - | - | - | - |
| 1777846675 | 27.78° C | 91% | 1011 hPa | - | - | - | - |
| 1777844875 | 28.33° C | 91% | 1011 hPa | - | - | - | - |
| 1777843074 | 27.78° C | 89% | 1011 hPa | - | - | - | - |
| 1777841274 | 28.33° C | 89% | 1011 hPa | - | - | - | - |
| 1777839475 | 27.78° C | 87% | 1011 hPa | - | - | - | - |
| 1777812479 | 27.78° C | 86% | 1013 hPa | - | - | - | - |
| 1777810675 | 27.22° C | 82% | 1012 hPa | - | - | - | - |
| 1777808874 | 27.22° C | 82% | 1012 hPa | - | - | - | - |
| 1777805274 | 28.33° C | 85% | 1011 hPa | - | - | - | - |
| 1777799875 | 28.33° C | 82% | 1009 hPa | - | - | - | - |
| 1777796279 | 28.89° C | 84% | 1009 hPa | - | - | - | - |
| 1777794474 | 28.89° C | 84% | 1009 hPa | - | - | - | - |
| 1777792673 | 29.44° C | 85% | 1009 hPa | - | - | - | - |
| 1777790874 | 30° C | 82% | 1009 hPa | - | - | - | - |
| 1777789075 | 30° C | 82% | 1010 hPa | - | - | - | - |
| 1777787274 | 30° C | 82% | 1010 hPa | - | - | - | - |
| 1777785474 | 29.44° C | 85% | 1010 hPa | - | - | - | - |
* Rain since midnight (hover to see other rain measurements)
** Current wind speed in m/s (hover to see current wind gust speed)